898  
ASUS41 KBOX 211410  
RWRBOX  
 
REGIONAL WEATHER ROUNDUP  
NATIONAL WEATHER SERVICE BOSTON/NORTON MA  
1000 AM EDT THU JUN 21 2018  
 
NOTE: "FAIR" INDICATES FEW OR NO CLOUDS BELOW 12,000 FEET WITH NO  
SIGNIFICANT WEATHER AND/OR S TO VISIBILITY
.  
 
MAZALL-211500-  
EASTERN MASSACHUSETTS  
 
CITY SKY/WX TMP DP RH WIND PRES REMARKS
 
BOSTON FAIR 80 55 42 NE8 29.77S  
BEVERLY FAIR 77 59 53 N8 29.76S  
LAWRENCE FAIR 79 58 48 N9 29.79S  
BEDFORD FAIR 77 58 51 N6 29.77S  
BLUE HILL N/A 74 56 53 VRB3 29.78S  
NORWOOD FAIR 79 58 48 VRB5 29.77S  
MARSHFIELD FAIR 75 61 60 CALM 29.77S  
PLYMOUTH FAIR 74 61 63 SW9 29.78F  
TAUNTON FAIR 75 61 61 VRB5 29.77F  
NEW BEDFORD FAIR 69 62 78 S5 29.78S  

 
 
MAZALL-211500-  
CAPE COD AND THE ISLANDS  
 
CITY SKY/WX TMP DP RH WIND PRES REMARKS
 
FALMOUTH FAIR 66 61 82 S5 29.80S  
HYANNIS FAIR 68 61 78 SW8 29.78S  
CHATHAM FAIR 69 60 73 VRB6 29.80S  
PROVINCETOWN FAIR 71 62 73 SW12 29.79S  
NANTUCKET LGT RAIN 64 62 93 CALM 29.79F  
MARTHAS VNYRD SUNNY 63 61 94 W20 29.79S  

 
 
MAZALL-211500-  
CENTRAL AND WESTERN MASSACHUSETTS  
 
CITY SKY/WX TMP DP RH WIND PRES REMARKS
 
WORCESTER FAIR 72 56 57 VRB3 29.81S  
FITCHBURG FAIR 77 59 53 VRB5 29.79S  
ORANGE FAIR 74 56 53 NE8 29.80F  
SPRINGFIELD MOSUNNY 72 57 57 NW3 29.79S  
WESTFIELD FAIR 73 56 54 NE7 29.79S  
NORTH ADAMS FAIR 69 56 62 W5 29.82S  
PITTSFIELD FAIR 71 55 56 NW3 29.82S  

 
 
RIZALL-211500-  
RHODE ISLAND  
 
CITY SKY/WX TMP DP RH WIND PRES REMARKS
 
PROVIDENCE FAIR 70 61 73 SE9 29.79S  
NEWPORT FAIR 67 63 87 VRB3 29.79S  
BLOCK ISLAND CLOUDY 65 65 100 SE7 29.78F  
SMITHFIELD FAIR 77 59 53 VRB3 29.79S  
WESTERLY PTSUNNY 68 65 90 E6 29.79S  

 
 
CTZALL-211500-  
CONNECTICUT  
 
CITY SKY/WX TMP DP RH WIND PRES REMARKS
 
BRADLEY INTL FAIR 76 58 53 N7 29.79S  
HARTFORD FAIR 75 56 51 N8 29.77F  
BRIDGEPORT FAIR 70 65 84 S6 29.78S  
DANBURY FAIR 72 61 68 NW7 29.80S  
GROTON FAIR 67 62 84 E5 29.78R  
NEW HAVEN PTSUNNY 71 66 84 S6 29.78S  
CHESTER PTSUNNY 72 64 78 CALM 29.79S  
MERIDEN FAIR 74 62 66 VRB3 29.78S  
WILLIMANTIC FAIR 77 60 55 NE6 29.78S  
OXFORD FAIR 69 63 81 CALM 29.81R  

 
 
MEZ002-015-021-024-NHZ003-005-008-011-012-014-VTZ005-008-211500-  
NORTHERN NEW ENGLAND  
 
CITY SKY/WX TMP DP RH WIND PRES REMARKS
 
PORTLAND ME CLOUDY 72 57 59 VRB6 29.77S  
BANGOR ME MOSUNNY 66 46 48 N9 29.79S  
CONCORD NH CLOUDY 73 57 57 N8 29.79S  
MANCHESTER NH PTSUNNY 77 56 48 NE8 29.77S  
NASHUA NH FAIR 76 58 53 N8 29.79R  
PORTSMOUTH NH PTSUNNY 77 56 46 N12 29.76R  
JAFFREY NH FAIR 74 56 53 VRB5 29.81S  
KEENE NH FAIR 78 57 48 VRB6 29.80F  
BURLINGTON VT FAIR 65 45 48 NW12 29.88R  
MT. WASHINGTON MOSUNNY 41 34 75 NW32G41 N/A WCI 29  

 
 
NYZ052-076-211500-  
EASTERN NEW YORK  
 
CITY SKY/WX TMP DP RH WIND PRES REMARKS
 
ALBANY FAIR 72 54 53 NE7 29.83S  
NEW YORK CITY PTSUNNY 73 65 75 NE5 29.77S  

 
 
ANZALL-211500-  
MARINE OBSERVATIONS  
 
STATION/POSITION TIME TEMP WIND PRES VSBY WAVE
 
AIR SEA DIR/SP/G HT/PER  
(UTC) (F) (DEG/KT/KT) (MB) (MI) (FT/S)  
BOSTON BUOY 1350 65 64 230/ 4/ 6 1008.1R 1  
BUZZARDS BAY 1300 61 130/ 6/ 6 1009.2F  
NANTUCKET SOUND 1350 65 160/ 10/ 12 1008.3F 1  
MASS BAY-STELLWA 1304 60 60 1006.4R 1/ 8  
ISLE OF SHOALS 1400 65 50/ 7/ 7 1007.9R  
S OF BLOCK IS 1343 62 N/A 2/ 7  

 
   
.....................KEY......................
 
 
SKY/WX - SKY CONDITION/PRESENT WEATHER  
TMP - TEMPERATURE IN FAHRENHEIT  
DWPT - DEWPOINT IN FAHRENHEIT  
RH - RELATIVE HUMIDITY IN PERCENT  
WIND - DIRECTION AND SPEED IN MPH  
PRES - MEAN SEA LEVEL PRESSURE IN INCHES OF HG  
WCI - WIND CHILL INDEX  
VSB - VISIBILITY IN MILES  
HX - HEAT INDEX  
TC - TEMPERATURE IN CELSIUS  
VRB - VARIABLE WIND DIRECTION  
N/A - NOT AVAILABLE  
 
 
CLICK HERE TO GO TO PREVIOUS BULLETINS.

The Nexlab MA Page
The Nexlab RI Page
The Nexlab NH Page
The Nexlab CT Page Main Text Page